TimeCDT,TemperatureF,Dew PointF,Humidity,Sea Level PressureIn,VisibilityMPH,Wind Direction,Wind SpeedMPH,Gust SpeedMPH,PrecipitationIn,Events,Conditions,WindDirDegrees,DateUTC
12:52 AM,66.0,60.1,81,30.13,10.0,NW,6.9,-,N/A,,Clear,310,2013-08-10 05:52:00
1:52 AM,63.0,59.0,87,30.13,10.0,NW,3.5,-,N/A,,Clear,320,2013-08-10 06:52:00
2:52 AM,64.0,57.9,80,30.14,10.0,NNW,5.8,-,N/A,,Clear,330,2013-08-10 07:52:00
3:52 AM,64.0,55.9,75,30.14,10.0,NNW,5.8,-,N/A,,Clear,340,2013-08-10 08:52:00
4:52 AM,62.1,55.0,78,30.15,10.0,NNW,4.6,-,N/A,,Clear,330,2013-08-10 09:52:00
5:52 AM,61.0,55.0,81,30.16,10.0,NNW,5.8,-,N/A,,Clear,330,2013-08-10 10:52:00
6:52 AM,61.0,54.0,78,30.17,10.0,NNW,3.5,-,N/A,,Clear,340,2013-08-10 11:52:00
7:52 AM,64.9,55.0,70,30.17,10.0,North,4.6,-,N/A,,Clear,360,2013-08-10 12:52:00
8:52 AM,70.0,55.0,59,30.18,10.0,North,3.5,-,N/A,,Clear,10,2013-08-10 13:52:00
9:52 AM,75.0,53.1,46,30.18,10.0,NNE,5.8,-,N/A,,Clear,30,2013-08-10 14:52:00
10:52 AM,75.9,52.0,43,30.19,10.0,Calm,Calm,-,N/A,,Clear,0,2013-08-10 15:52:00
11:52 AM,78.1,53.1,42,30.19,10.0,Variable,5.8,-,N/A,,Clear,0,2013-08-10 16:52:00
12:52 PM,79.0,54.0,42,30.18,10.0,NNE,10.4,-,N/A,,Clear,30,2013-08-10 17:52:00
1:52 PM,79.0,53.1,40,30.18,10.0,North,6.9,18.4,N/A,,Partly Cloudy,10,2013-08-10 18:52:00
2:52 PM,80.1,55.0,42,30.17,10.0,Variable,3.5,-,N/A,,Mostly Cloudy,0,2013-08-10 19:52:00
3:52 PM,82.0,55.9,41,30.15,10.0,WNW,12.7,-,N/A,,Overcast,300,2013-08-10 20:52:00
4:52 PM,79.0,55.0,44,30.14,10.0,NW,9.2,-,N/A,,Mostly Cloudy,320,2013-08-10 21:52:00
5:52 PM,80.1,55.9,43,30.14,10.0,NNW,8.1,-,N/A,,Partly Cloudy,340,2013-08-10 22:52:00
6:52 PM,78.1,55.9,46,30.12,10.0,WNW,5.8,-,N/A,,Clear,300,2013-08-10 23:52:00
7:52 PM,75.9,57.0,52,30.12,10.0,North,4.6,-,N/A,,Clear,10,2013-08-11 00:52:00
8:52 PM,73.0,59.0,61,30.12,10.0,Calm,Calm,-,N/A,,Clear,0,2013-08-11 01:52:00
9:52 PM,66.0,60.1,81,30.13,10.0,SSE,3.5,-,N/A,,Clear,160,2013-08-11 02:52:00
10:52 PM,66.0,61.0,84,30.13,10.0,Calm,Calm,-,N/A,,Clear,0,2013-08-11 03:52:00
11:52 PM,64.9,60.1,84,30.13,10.0,Calm,Calm,-,N/A,,Clear,0,2013-08-11 04:52:00